FENGYUN 1C DEB, 32353

Orbit data source: Space-Track

FENGYUN 1C DEB, 32353 is space debris in SSO originally from a launch on Mon, 10 May 1999 UTC launched from the Taiyaun Space Center, China (TSC). Fengyun 1C debris stems from the Chinese weather satellite Fengyun-1C, which was intentionally destroyed by a Chinese anti-satellite missile in 2007. This event dramatically increased the amount of space debris, with thousands of trackable fragments posing hazards to satellites and human spaceflight. The Fengyun 1C debris cloud has become a focal point in discussions about space sustainability and the need for international regulations to prevent the creation of new debris.

Loading next visibility...
Identifier
32353, 1999-025CYW
Orbit
SSO
Country
Flag of CNCN / PRC
Related business
Manufacturer
Unknown
Mission
Spacecraft
Bus & Motor
Unknown
Mass
Unknown
Launch date (UTC)
1999-05-10 (27 years ago)
Launch vehicle
Unknown
Launch site
Taiyaun Space Center, China (TSC)
Object type
Payload
Rocket body
Debris
Shape & HBR
Unknown shape, 0.1 m
Radar Cross Section
Small (<0.1 m²)

Expand to show TLE details & history
Last TLE update: 4 days ago

TLE from 4 days ago
0 FENGYUN 1C DEB
1 32353U 99025CYW 26161.20653035  .00003111  00000-0  18205-2 0  9995
2 32353  98.9322 339.7196 0124639  58.1816 303.1418 14.05185564657134
Epoch: 2026-06-10T04:57Z
TLE epoch observation values (Epoch: 2026-06-10T04:57:24.222Z)
Latitude
0.00006°
Longitude
6.80066°
Altitude
830.139 km
Speed
7.463 km/s
True Right ascension
22h 38m 52s
True Declination
0° 00' 00"
Sunlit
Object was in daylight at epoch
Visualization orbit readout
Latitude
Unknown
Longitude
Unknown
Altitude
Unknown
Speed
Unknown
Apparent Right ascension
Unknown
Apparent Declination
Unknown
Sunlit
N/A
Visualization observer readout
Local Sidereal Time
10:53:07
Azimuth
Unknown
Elevation
Unknown
Doppler factor
Unknown
Orbital elements
Apogee altitude
963.461 km
Perigee altitude
782.704 km
Semi-major axis
7,251.219 km
Eccentricity
0.01246
Inclination
98.9322°
RAAN
339.7196°
Arg. of periapsis
58.1816°
True anomaly
301.93571°
Mean anomaly
303.1418°
Eccentric anomaly
302.53978°
Mean motion
3.51501 °/min
Orbital period
102.42 mins
BSTAR
0.0018205
Loading maneuver chart data...
Computing Atmospheric mass density...

Documentation

Showing up to 5 results
|